Theta_e
301 293 289 289 292 293 295 295 295 296 296 294 294 292 290 292 293 293 294 295 296 293 291 292 293 293 294 295 297 297 297 297 297 297 298 298 298 298 298 299 300 301 301 305 307 312 315 318 320 321 321 322 324 325 325 325 326 326 327 327 326 328 329 328 327 327 326 326 323 322 324 324 324 328 330 331 331 331 331 331 331 331 329 328 327 327
297 292 291 293 295 295 295 296 295 295 295 293 294 291 290 294 290 294 294 295 296 293 290 292 292 293 294 295 296 297 296 295 297 297 298 298 298 299 299 299 300 301 305 309 308 308 311 314 317 318 319 318 320 322 324 324 325 325 325 326 327 327 328 328 328 327 326 326 327 326 326 323 322 324 328 329 330 331 332 332 332 332 331 330 329 327
291 289 293 295 296 296 295 296 295 294 295 296 293 293 291 292 293 295 294 296 296 294 290 292 291 292 294 295 296 296 297 298 299 299 299 299 298 299 300 300 300 301 303 308 307 308 308 311 314 316 316 318 320 321 322 323 324 324 324 324 326 326 326 327 327 327 326 325 325 326 323 324 321 321 322 325 327 331 331 330 329 329 330 331 330 329
288 291 296 296 296 295 295 295 294 295 298 293 292 290 288 293 289 288 293 295 295 292 293 290 289 292 295 296 296 299 299 299 300 301 300 300 299 299 300 301 302 301 302 307 306 306 306 307 309 310 312 315 317 317 319 321 323 325 324 324 325 325 326 326 325 324 325 325 324 323 324 325 324 322 321 322 324 325 324 327 329 328 329 329 328 327
290 294 295 295 296 295 293 295 293 291 289 294 296 293 292 293 292 292 291 293 293 294 293 290 288 289 291 292 294 297 299 299 299 299 300 301 301 301 302 302 303 302 303 306 306 305 305 305 305 306 307 309 313 315 317 319 321 324 324 324 324 324 324 324 323 323 324 324 322 322 321 321 320 320 322 321 321 321 321 321 327 327 328 327 325 326
293 293 294 294 295 295 295 291 293 293 288 290 294 295 297 297 292 292 293 290 289 289 293 291 282 280 287 291 293 295 295 297 298 297 298 298 300 302 302 302 305 307 304 306 306 306 305 305 305 305 305 305 307 310 314 318 320 321 322 323 323 323 323 323 323 323 323 322 321 320 319 316 315 314 317 320 319 317 318 319 320 326 328 326 325 324
294 291 294 294 294 294 294 292 294 295 289 288 289 297 296 296 294 293 291 293 283 281 291 294 283 279 289 290 291 292 293 295 296 297 297 298 300 300 301 302 303 304 305 306 305 304 303 304 304 304 305 305 305 307 309 314 317 318 320 321 323 322 322 323 323 323 321 321 320 319 319 317 317 314 315 315 319 321 320 322 322 321 321 325 325 325
291 292 294 297 295 294 293 290 296 294 290 287 293 299 297 297 294 293 294 291 289 292 292 292 292 282 282 289 294 294 293 293 294 295 296 297 297 298 301 302 302 303 303 305 303 302 303 304 304 304 304 305 306 306 309 312 315 317 318 320 321 321 321 322 322 322 321 321 319 318 318 318 316 315 313 315 316 318 320 321 320 320 319 319 323 323
293 290 294 294 294 292 291 294 298 296 292 292 294 298 296 297 296 295 293 289 291 286 284 286 292 281 280 288 296 293 291 291 292 293 296 297 297 297 299 301 302 302 302 303 304 303 303 304 303 303 303 304 305 306 308 312 313 316 317 319 319 320 320 320 320 321 319 319 319 318 318 315 315 316 316 316 317 317 319 318 320 322 319 318 321 322
294 293 295 296 294 291 295 291 295 297 292 295 297 299 298 299 299 296 290 288 287 283 280 284 290 280 281 289 290 292 289 290 291 294 296 297 297 297 298 299 300 300 300 300 303 302 302 302 302 302 303 303 304 306 308 309 311 313 315 318 318 317 318 319 319 319 317 317 317 317 316 315 315 315 316 314 316 316 316 316 316 318 318 318 318 319
295 295 295 296 294 296 292 293 295 296 297 298 298 295 295 294 292 291 289 285 284 279 280 287 290 286 279 285 288 288 290 291 292 292 295 299 298 299 300 300 301 302 302 302 300 300 303 303 302 304 303 303 307 307 308 309 311 312 315 316 316 316 317 317 317 317 316 316 317 317 316 316 315 314 315 313 314 315 315 317 318 317 317 317 318 318
295 295 296 294 295 294 296 293 297 298 297 298 294 291 291 288 288 286 285 285 279 277 283 283 288 289 278 282 291 292 293 293 293 292 294 296 297 299 301 300 301 301 301 303 300 298 302 302 302 303 304 306 307 307 307 308 310 312 314 315 315 315 316 316 316 315 315 315 315 315 316 316 316 315 315 315 314 314 314 314 314 316 317 316 315 315
289 291 295 295 296 296 295 291 293 294 296 295 292 290 284 282 282 278 282 276 276 277 281 283 285 284 284 287 291 290 291 293 294 294 296 296 298 300 300 300 300 301 302 302 300 299 301 300 301 301 303 305 306 308 309 310 311 312 313 314 314 314 314 314 314 314 314 314 315 315 316 315 316 316 315 315 314 313 313 314 312 312 313 312 312 312
289 293 294 295 295 295 297 289 286 284 289 292 289 284 283 279 276 273 276 280 280 280 281 282 286 280 285 287 294 294 296 293 293 294 296 296 298 299 300 300 300 300 300 301 301 302 301 301 301 303 304 305 306 307 309 309 310 311 313 313 313 312 313 312 313 315 315 316 315 314 316 316 315 315 315 314 314 314 314 314 313 313 312 312 311 310
282 281 288 291 287 296 295 295 292 289 290 292 294 290 284 283 279 273 277 274 275 278 280 282 279 278 279 284 292 294 294 294 293 294 296 297 298 298 298 298 300 300 300 301 302 303 303 304 303 304 305 305 306 307 308 309 310 310 311 312 311 311 311 312 313 316 317 317 316 314 315 315 315 314 314 314 314 314 313 313 313 313 310 308 308 308
286 285 291 294 293 294 294 297 298 294 291 290 292 293 287 284 287 280 283 283 279 277 278 278 278 282 285 292 293 293 293 294 294 294 294 293 295 296 296 295 296 298 299 302 302 302 303 304 304 305 306 306 307 307 308 309 310 310 311 311 311 311 311 312 312 314 316 316 315 313 314 314 314 313 313 312 311 310 310 309 310 308 308 307 306 306
284 282 291 296 296 292 293 295 295 297 284 288 290 284 288 292 286 281 281 283 282 280 277 282 282 285 290 291 294 294 293 293 293 292 293 293 294 294 294 295 297 299 300 302 303 302 304 304 305 306 306 307 307 308 308 309 310 311 311 311 310 311 311 312 312 313 314 314 313 313 313 312 312 312 311 311 309 308 307 307 306 306 306 306 305 306
285 285 289 291 290 292 294 292 297 293 295 289 283 288 293 293 291 286 280 280 280 276 278 282 280 279 283 280 290 291 290 291 292 292 293 293 293 294 295 296 298 299 301 303 304 304 305 305 305 305 305 306 307 308 308 309 310 311 312 311 311 310 311 311 312 313 313 313 312 312 312 310 310 310 309 308 309 307 307 304 304 304 306 304 304 306
292 281 286 289 291 292 295 296 293 295 294 291 289 296 289 281 282 283 283 276 276 275 277 279 279 279 281 285 287 288 289 291 292 293 292 292 294 295 295 296 299 301 302 302 303 303 303 303 304 304 304 305 307 307 308 309 310 310 310 311 311 311 311 311 312 311 311 311 311 311 310 309 308 308 307 306 308 307 306 305 303 303 303 304 303 304
292 284 283 289 290 292 293 292 284 286 294 295 294 289 293 287 285 282 281 283 282 277 277 277 279 278 286 285 289 290 290 291 292 292 292 293 294 295 295 298 300 302 302 302 302 302 303 302 302 302 302 303 305 305 306 306 307 309 309 309 310 309 309 309 308 308 309 308 309 309 307 307 306 306 306 305 306 306 304 304 304 303 302 303 303 302
285 288 280 285 292 292 283 287 286 288 285 284 284 284 286 287 289 286 286 283 280 278 276 276 275 280 286 291 291 292 291 290 291 294 296 295 294 295 296 299 302 302 302 302 302 302 302 301 301 301 300 300 300 300 302 304 305 305 306 307 308 308 307 307 306 306 306 306 306 306 306 306 305 305 304 304 304 303 303 302 302 302 301 299 298 298
285 284 283 283 284 284 287 291 291 292 291 289 288 286 288 285 282 280 280 286 283 281 276 277 276 282 292 293 294 292 292 296 295 294 297 297 297 297 297 300 302 302 301 302 302 301 301 300 300 298 298 296 298 299 300 303 304 303 304 304 305 305 306 305 305 305 305 305 305 304 304 304 303 303 303 302 302 302 301 299 298 297 297 296 296 296
291 287 285 282 284 286 290 291 290 292 290 294 290 288 290 287 285 282 279 281 283 282 280 280 277 278 292 292 294 294 293 292 292 293 294 296 297 298 301 301 301 301 302 302 302 301 300 299 298 298 298 298 298 299 298 299 302 303 303 303 303 304 304 305 304 304 304 304 304 303 303 302 300 300 299 300 298 298 299 297 296 296 296 295 295 295
293 286 283 283 285 288 290 290 289 290 292 291 290 289 289 287 288 286 283 283 281 279 278 280 275 280 290 290 291 289 287 287 289 290 293 294 295 297 297 299 301 301 301 301 300 301 300 297 295 297 297 299 299 298 300 300 301 301 301 302 302 303 303 303 303 303 303 302 301 301 300 299 298 298 298 298 298 297 296 297 296 294 294 294 295 296
286 285 286 281 281 282 285 288 288 290 291 285 285 289 291 291 290 285 284 284 282 282 281 279 276 282 290 291 292 290 291 291 290 290 291 291 294 296 296 298 298 300 300 299 300 300 298 296 297 298 298 298 298 297 298 300 300 300 301 301 301 301 300 300 300 300 300 299 299 298 298 296 296 297 297 297 297 295 295 294 294 293 293 294 294 294
288 287 286 280 277 275 275 277 280 283 285 286 285 286 290 291 289 285 282 283 279 281 282 279 280 287 289 288 290 290 288 290 291 291 291 291 293 295 295 296 296 296 298 298 299 299 299 298 296 296 297 298 298 298 298 298 298 298 298 299 297 298 297 298 298 299 299 298 298 296 295 295 296 296 296 295 295 294 294 294 294 293 292 293 294 292
285 287 288 286 284 282 284 286 288 290 287 285 286 289 289 291 291 289 286 283 282 282 281 283 286 287 288 288 288 289 288 290 290 290 292 292 292 292 295 295 295 295 297 298 298 298 297 296 297 298 297 298 296 295 295 296 297 295 296 296 295 296 296 297 297 298 298 297 296 295 294 294 294 294 294 294 293 293 293 292 292 292 292 291 291 291
286 285 288 288 288 288 288 289 290 291 287 288 287 287 289 289 290 287 285 284 288 284 281 285 288 286 288 289 287 288 289 289 290 291 292 291 293 293 295 296 297 296 296 297 297 298 299 299 297 297 297 296 296 295 294 294 294 295 295 295 294 295 296 297 296 296 296 295 294 294 293 292 291 292 292 292 292 292 291 291 291 291 291 290 290 289
285 284 288 288 287 289 290 290 290 291 290 289 289 288 287 288 288 287 287 290 289 284 283 288 289 287 289 291 291 290 291 292 292 293 293 293 294 294 294 294 295 295 295 297 299 299 299 298 298 297 296 295 294 294 293 294 293 293 293 293 292 294 295 295 295 295 294 293 293 292 292 291 290 291 291 291 291 291 291 290 290 289 289 289 290 291
287 282 286 288 286 288 289 290 290 290 288 288 289 289 289 289 288 289 289 290 290 287 289 290 290 289 292 292 293 293 292 293 293 293 293 294 295 295 295 295 295 295 296 297 298 299 299 299 297 296 296 294 295 295 295 295 294 294 294 293 293 293 292 292 292 293 293 292 291 291 290 289 289 289 289 289 289 289 289 289 289 289 288 288 288 288
289 283 290 286 283 282 288 290 290 289 288 286 288 289 289 289 289 289 289 290 290 289 290 290 288 288 294 295 294 294 295 293 293 292 295 295 295 296 295 295 295 295 296 297 297 297 298 297 296 295 296 296 296 296 296 296 294 294 293 292 292 291 289 290 291 291 291 290 289 289 289 289 289 288 288 288 288 288 288 288 288 288 288 288 287 287
289 282 286 284 281 280 284 286 285 285 284 284 285 287 289 288 286 288 287 290 288 286 288 287 286 287 293 294 293 294 293 293 293 294 294 294 295 295 295 295 295 295 296 297 297 296 295 296 297 298 298 297 297 296 296 295 294 292 292 291 290 290 289 289 289 290 289 288 288 288 288 288 288 288 287 287 287 287 287 288 288 287 287 287 287 286
286 285 284 283 281 280 283 286 283 282 282 280 283 288 290 290 291 291 291 291 291 291 286 285 286 292 294 293 293 293 293 293 293 293 292 294 295 295 295 295 295 295 297 297 297 297 296 296 298 299 299 298 297 296 295 294 292 291 291 290 289 289 289 289 288 288 288 288 288 288 288 287 287 287 287 286 286 287 287 287 287 286 286 286 286 286
285 287 284 285 280 280 280 283 283 280 276 279 290 293 293 290 290 288 288 290 292 292 290 292 293 294 292 292 292 293 291 293 294 295 297 297 295 294 294 294 295 297 297 298 298 297 297 298 298 298 299 298 295 294 292 292 292 291 290 289 288 289 288 288 288 287 287 286 286 287 287 287 286 286 286 286 286 286 286 286 285 285 285 285 285 285
285 284 282 282 281 278 277 281 279 275 277 288 291 293 295 295 294 291 291 292 293 293 293 292 293 293 293 293 294 295 294 294 295 296 295 294 294 295 295 296 296 297 298 298 298 298 298 298 298 297 294 293 293 292 291 290 290 289 289 289 289 288 288 287 287 287 286 286 286 286 286 286 286 285 285 285 285 285 285 284 284 284 284 284 283 283
285 284 283 283 282 281 277 278 273 275 282 289 290 292 294 295 294 292 290 292 293 293 293 292 294 295 296 295 295 294 293 293 293 291 292 294 295 297 295 296 297 297 297 297 297 298 298 297 295 295 292 289 290 290 290 289 289 289 288 288 289 288 287 287 287 286 286 286 286 286 285 285 285 285 284 284 284 284 284 283 283 283 282 282 282 280
289 287 284 281 282 277 277 279 279 281 280 283 286 288 291 288 288 288 285 289 293 295 294 294 294 295 296 295 294 290 291 290 291 292 292 292 295 295 297 298 298 298 298 296 295 295 295 295 294 294 290 290 290 290 289 289 289 288 288 288 287 287 287 287 286 285 285 285 285 285 285 285 284 284 283 283 283 283 282 282 282 281 280 281 281 280
291 286 285 283 279 283 278 275 277 276 276 281 288 291 294 294 294 293 289 287 293 294 296 295 294 295 295 293 290 289 289 291 288 293 293 292 293 295 295 297 297 294 293 290 290 290 290 290 289 290 291 290 289 289 289 289 289 288 287 287 287 286 286 286 285 285 284 284 284 284 284 283 283 283 283 282 282 282 281 281 281 280 279 280 280 280
289 290 287 285 281 281 279 276 275 275 279 286 285 289 292 294 294 290 286 284 291 293 295 295 295 295 294 289 287 289 289 286 289 293 292 294 295 296 297 296 293 292 290 289 289 289 288 288 289 289 288 289 288 287 288 288 288 288 287 286 286 286 285 285 284 284 284 283 283 282 282 282 282 282 282 281 280 281 280 280 280 280 279 280 279 280
283 284 285 283 281 282 280 278 277 278 280 283 287 287 291 294 294 289 278 279 292 291 292 294 295 295 291 291 289 289 288 287 290 294 293 294 297 296 292 293 292 288 286 285 286 287 287 287 288 287 288 288 287 286 286 286 286 286 285 285 285 285 284 283 283 283 282 282 281 281 281 281 281 280 280 280 279 279 279 279 279 279 278 278 278 279
280 282 283 282 282 283 283 278 280 281 286 287 287 288 291 295 291 281 276 285 288 292 294 294 293 294 292 290 290 289 292 296 294 290 289 290 291 287 284 284 284 284 284 284 286 287 287 285 287 287 286 285 285 286 286 286 286 285 284 284 283 282 281 281 281 281 281 280 280 280 279 279 279 279 278 278 278 278 279 278 278 278 278 279 280 281
280 282 282 282 282 281 282 280 279 281 284 290 287 292 293 290 280 280 287 287 288 287 290 292 292 292 293 293 292 294 295 295 289 287 288 288 287 284 282 283 283 283 283 283 284 285 285 284 284 283 283 283 284 285 285 285 285 283 283 282 280 278 279 280 280 280 279 279 278 278 277 277 277 277 277 276 277 277 277 277 278 279 280 281 282 282
282 280 279 281 281 281 279 278 278 276 286 292 291 288 289 287 284 286 287 289 286 287 287 288 291 291 293 292 293 294 293 290 288 287 287 286 286 285 285 283 283 283 283 282 282 283 284 283 282 282 281 281 282 284 284 285 283 282 281 279 276 277 278 279 278 278 278 277 276 276 275 275 275 275 276 276 276 277 278 279 279 280 281 281 282 282
287 282 281 283 286 280 280 278 279 283 285 292 292 287 288 290 291 288 289 288 287 288 288 288 288 289 291 294 292 292 291 290 287 285 285 285 283 283 283 282 282 282 282 281 281 282 283 282 281 281 280 280 280 281 283 284 282 281 278 275 275 276 277 277 277 276 275 275 274 274 274 274 274 274 275 276 277 278 279 279 279 280 281 281 282 282
288 286 287 282 286 283 281 284 286 285 290 293 295 292 292 295 291 289 289 289 288 288 286 288 289 287 288 291 291 290 289 288 288 287 288 287 284 284 283 283 283 282 282 282 281 281 281 281 280 279 278 277 277 278 278 280 280 277 274 273 274 274 275 275 275 274 273 273 273 273 273 273 273 274 275 276 277 278 278 279 280 280 281 280 281 281
290 289 287 288 286 289 287 289 290 287 286 289 288 288 288 292 289 288 290 291 290 287 288 289 286 287 288 288 290 288 288 286 287 285 284 284 284 282 282 282 281 281 281 281 281 281 280 280 279 278 275 274 274 274 275 276 278 275 271 272 272 273 273 273 273 273 272 272 272 272 273 273 273 274 274 275 277 277 278 278 279 279 280 280 280 280
286 287 289 285 285 286 282 289 288 285 287 288 290 287 286 284 287 286 287 289 288 287 288 289 287 286 287 286 288 288 286 286 285 284 283 284 284 283 282 282 281 281 281 280 281 280 280 279 277 276 274 272 272 271 271 270 270 271 270 270 271 272 272 272 272 272 272 271 272 272 272 273 273 274 274 275 277 277 277 278 278 279 279 279 279 279
285 286 287 286 286 286 286 287 290 289 287 287 290 289 289 290 288 287 288 288 287 287 286 287 286 286 285 286 286 287 286 285 285 284 284 284 284 283 283 282 281 280 279 280 280 279 279 278 277 275 273 271 271 270 269 268 268 268 268 268 269 270 271 271 272 271 271 271 272 272 272 273 274 274 274 275 275 276 276 277 278 278 278 277 278 277
286 289 284 286 286 285 287 286 285 285 286 287 286 286 290 292 290 287 287 286 287 287 287 287 286 287 286 287 286 286 287 285 284 285 284 283 282 282 283 282 280 280 279 279 278 278 278 277 275 274 272 270 269 268 267 266 266 266 266 267 266 268 270 271 270 270 270 270 271 271 273 273 273 274 274 274 274 274 275 274 276 277 278 278 278 277
286 285 284 286 284 285 286 286 285 285 284 287 285 287 288 288 288 286 285 286 286 286 286 286 286 284 284 284 285 286 286 286 286 284 283 283 283 282 282 281 280 279 278 278 278 277 277 276 275 272 270 269 268 267 266 265 265 265 265 265 265 267 269 269 269 269 269 270 270 271 271 272 272 273 273 273 273 273 274 277 277 278 276 276 279 280
286 284 286 284 285 285 286 288 287 289 288 289 291 288 286 287 286 285 284 284 284 284 285 285 284 285 285 284 285 286 285 286 284 283 283 282 282 282 282 281 279 278 278 278 277 276 275 275 273 271 269 268 267 266 265 264 264 264 264 265 265 266 268 269 269 269 268 269 269 270 271 271 271 272 272 272 272 273 274 274 276 278 278 278 278 279
Wind_Speed
4 5 6 8 6 8 7 8 8 8 1 3 9 7 9 6 2 3 3 3 0 2 6 5 5 7 7 7 7 9 6 5 6 7 7 6 5 5 5 6 7 7 7 6 9 11 11 10 10 9 8 8 8 8 9 9 9 9 9 10 11 9 8 8 8 7 8 8 6 4 6 5 5 6 6 5 5 5 5 5 5 4 4 4 5 4
6 6 8 9 8 8 11 8 9 3 3 3 2 8 7 4 2 3 2 2 2 2 3 6 6 8 7 5 5 8 7 9 9 8 7 7 6 5 6 6 7 6 3 5 5 6 7 8 8 8 8 8 10 8 9 11 11 10 9 10 10 9 8 9 9 8 7 6 6 7 7 5 6 7 7 6 5 6 6 7 7 6 5 5 5 6
8 9 5 8 8 2 2 11 9 7 3 1 1 2 1 1 3 2 4 1 1 2 4 3 9 10 10 7 6 5 11 8 10 10 10 10 8 7 7 7 7 6 6 6 7 6 8 9 9 9 8 9 11 11 12 11 10 10 10 9 9 10 10 9 9 8 8 6 6 7 5 8 3 2 5 6 6 7 7 7 7 6 6 6 6 6
6 6 8 7 6 4 1 3 6 3 1 1 1 0 3 3 4 1 0 2 0 1 0 4 3 6 5 5 6 8 9 7 9 12 10 10 10 10 10 9 9 9 8 9 9 9 8 9 9 8 8 9 8 8 8 9 11 10 10 9 10 10 10 9 8 8 7 7 6 5 5 6 5 4 3 3 2 1 5 8 8 6 5 5 5 4
6 4 3 3 7 6 3 1 4 3 4 3 3 1 1 4 3 2 4 1 2 1 2 3 5 6 6 7 7 9 11 9 8 9 10 10 10 9 8 8 10 12 11 10 9 8 9 8 9 10 10 8 9 9 10 11 11 9 12 11 11 10 10 9 8 8 7 7 6 5 5 5 5 4 4 4 2 2 1 2 6 6 5 5 4 4
8 2 1 6 7 9 5 4 4 4 4 2 4 4 1 2 7 6 5 5 2 2 3 3 2 5 5 12 15 10 8 11 8 10 11 11 8 6 7 7 5 6 7 11 11 12 12 12 9 7 7 8 8 9 9 9 10 8 9 9 9 7 8 9 9 8 8 8 8 7 7 7 4 5 6 8 7 5 4 4 3 6 7 6 5 4
4 1 3 8 8 7 6 5 5 5 4 3 3 5 3 4 7 7 5 2 2 1 1 1 7 6 2 3 7 7 7 12 6 9 9 8 7 7 9 8 8 8 5 3 4 7 8 8 8 8 9 10 10 9 6 6 7 7 8 8 9 8 8 8 9 9 8 7 7 8 7 6 7 7 4 4 5 6 4 3 2 2 3 5 6 6
2 3 3 2 5 6 4 6 3 8 4 4 2 1 5 6 6 5 5 5 1 1 1 0 1 2 5 8 4 5 5 5 4 5 6 6 7 8 9 10 9 9 8 8 7 6 6 9 12 13 12 11 11 7 7 6 6 8 8 9 9 7 8 7 9 10 8 9 8 7 7 7 6 6 5 5 4 4 3 4 3 1 2 3 5 6
4 5 4 5 3 4 7 4 5 6 4 2 0 3 1 4 5 5 4 3 0 1 2 3 2 1 4 4 2 3 2 3 6 7 10 11 10 10 9 11 10 9 9 9 9 9 8 8 7 7 8 7 6 7 8 8 7 6 7 8 7 8 8 7 9 10 8 8 8 8 8 6 5 6 5 4 5 5 4 4 5 6 4 3 3 3
2 4 9 11 9 8 3 1 1 9 7 2 2 3 3 4 2 4 2 3 0 1 5 5 4 3 7 3 3 2 3 5 6 9 11 11 12 11 10 6 6 5 5 5 5 6 6 6 5 5 5 6 6 5 6 5 5 6 6 8 9 7 7 8 8 9 8 7 8 9 8 8 6 6 6 5 7 6 6 5 4 4 5 4 3 1
0 0 2 2 5 2 5 2 2 1 3 5 4 6 3 3 2 0 1 2 1 3 6 4 8 4 5 4 7 6 5 6 6 5 2 1 4 4 4 5 5 4 3 2 2 2 3 2 4 4 6 5 5 5 6 6 6 6 7 8 9 8 8 8 9 9 9 7 8 8 8 8 8 7 7 6 6 6 4 6 5 5 4 4 3 2
1 1 0 1 1 3 3 4 5 0 5 7 2 3 5 4 2 1 0 1 2 3 1 3 1 1 7 3 2 2 1 3 5 4 4 4 4 4 3 3 3 2 3 5 4 4 4 3 2 4 5 5 5 5 6 5 5 6 7 8 9 7 8 8 8 9 8 7 7 6 8 8 8 7 7 7 6 7 6 5 5 4 4 4 5 6
3 1 1 3 3 1 3 7 3 3 1 1 6 7 7 2 2 1 1 3 4 4 1 0 2 2 9 6 8 5 3 2 2 2 3 5 5 5 4 4 4 2 1 2 5 5 5 5 5 5 5 6 6 7 6 7 6 6 7 9 10 8 8 8 8 9 8 7 7 7 8 7 7 7 6 7 6 6 6 6 5 5 6 6 6 6
1 2 2 1 2 3 2 10 3 1 2 2 7 7 6 3 2 3 2 2 1 1 3 0 0 2 3 4 13 15 16 6 4 5 4 6 6 6 6 5 5 4 4 4 4 5 5 6 6 6 6 7 6 6 7 6 7 6 7 8 9 8 8 8 8 9 9 8 6 6 7 7 6 8 7 7 7 7 7 7 7 7 7 7 7 6
5 2 6 7 2 4 1 1 7 5 9 7 3 7 6 5 3 3 4 5 5 3 0 3 1 6 3 4 1 6 5 1 1 1 2 1 1 4 5 4 3 4 5 5 4 5 6 7 8 7 6 6 7 7 7 7 6 6 7 8 9 9 9 9 9 9 10 9 8 6 7 7 6 7 7 7 7 6 6 7 8 7 5 5 4 5
12 3 1 4 2 1 8 1 1 7 2 1 2 4 2 5 1 5 1 1 3 2 1 1 4 3 5 3 5 2 2 1 1 2 2 4 4 3 2 4 5 4 5 5 5 5 5 5 6 6 6 7 7 7 7 7 7 7 8 7 9 10 10 11 10 9 10 9 8 6 8 7 7 6 6 6 5 4 4 4 5 4 3 3 3 3
4 4 0 1 0 2 0 1 1 1 7 5 3 4 3 1 7 4 2 0 1 2 5 3 3 7 4 7 10 10 5 5 3 4 4 5 5 5 6 5 5 5 5 5 5 5 5 5 5 5 6 6 7 7 7 7 7 8 8 9 9 9 8 10 10 10 9 9 8 8 7 6 7 7 6 6 5 4 4 4 3 4 3 3 3 3
11 3 2 1 2 1 0 1 1 3 0 7 1 6 2 1 3 4 3 1 0 3 3 6 7 4 0 6 3 3 6 4 6 6 6 5 5 5 5 5 6 6 5 5 5 5 6 5 5 5 5 5 6 7 7 7 7 7 7 9 10 9 11 9 9 10 9 10 9 8 8 6 6 6 5 5 6 5 5 4 3 3 4 4 3 4
8 4 0 2 1 2 1 0 3 1 2 3 7 2 6 1 2 1 1 2 1 3 2 2 4 3 7 5 1 1 5 7 6 7 5 6 6 7 6 5 4 4 5 5 5 6 6 6 5 5 6 6 6 7 7 7 8 7 6 8 9 10 9 9 7 7 6 7 6 7 7 7 6 5 5 4 5 5 5 5 4 4 4 4 4 5
3 6 1 2 1 1 0 2 9 2 2 0 2 3 1 1 3 4 5 1 4 3 2 4 4 4 5 5 5 5 6 6 6 6 7 8 7 6 4 4 5 6 6 6 5 5 5 5 6 6 6 7 7 7 7 6 6 7 6 8 8 6 7 7 7 7 7 6 7 6 6 5 5 5 5 5 6 6 5 5 4 4 4 4 5 4
2 2 5 1 2 1 2 3 7 10 8 1 3 3 1 1 1 2 1 5 3 2 4 2 4 3 5 7 8 10 8 6 3 1 2 3 5 6 6 7 7 7 6 6 5 6 6 6 6 6 5 5 5 5 5 6 6 6 5 7 8 10 9 8 7 7 6 6 7 7 7 7 6 6 6 5 5 5 4 4 4 4 4 4 4 4
2 2 8 4 3 4 1 3 2 3 8 9 11 10 13 9 4 4 5 1 1 3 3 4 8 2 1 1 7 6 5 3 2 2 2 2 1 2 4 5 7 6 5 5 5 6 6 6 6 5 5 5 5 5 5 5 5 5 5 6 7 8 7 8 7 7 7 6 6 7 7 7 5 6 6 6 5 5 5 4 4 4 4 5 4 4
4 4 9 5 2 3 0 2 1 1 1 1 3 6 7 6 5 5 7 6 1 3 2 1 3 8 5 0 1 2 3 3 1 1 1 1 1 1 2 4 5 5 6 6 5 5 5 5 6 6 6 6 6 5 5 5 5 6 6 6 6 7 7 7 7 6 7 7 7 7 7 7 6 6 6 6 5 5 5 5 4 4 4 4 4 4
9 5 6 3 2 0 2 2 2 1 1 1 4 2 6 9 11 8 4 4 6 1 2 1 4 5 2 2 1 0 0 0 2 0 2 2 1 1 1 2 4 5 4 4 4 4 5 5 5 5 5 6 6 6 6 5 5 5 5 5 6 8 8 7 7 7 7 7 7 7 7 7 6 7 6 7 6 6 5 5 4 4 4 4 5 6
4 2 9 5 3 1 3 1 2 1 1 4 4 6 1 2 3 2 2 1 2 6 7 6 8 9 4 1 1 2 2 3 4 4 4 4 3 2 2 3 3 2 3 5 5 5 5 5 6 7 6 6 5 5 5 6 6 6 6 6 6 6 5 6 5 7 6 7 8 7 8 6 6 7 7 6 6 6 6 6 5 4 5 5 6 5
4 5 9 8 10 9 8 8 13 14 12 1 2 4 5 6 9 5 4 2 2 3 6 3 6 11 3 1 0 3 3 4 5 5 4 5 5 4 4 4 4 4 4 5 5 5 7 7 5 5 6 6 6 7 6 5 5 5 5 6 5 5 5 5 5 6 7 7 8 7 7 6 6 7 7 7 7 7 6 6 5 5 4 5 6 5
3 4 7 10 13 15 17 11 3 13 7 8 11 12 13 10 8 7 3 3 9 4 7 5 8 15 12 2 1 4 5 7 8 4 6 6 5 4 3 4 5 5 5 6 6 5 3 4 8 7 5 5 5 5 5 5 6 5 5 5 5 5 6 5 6 6 7 7 7 7 6 6 6 6 7 7 7 6 6 6 5 5 5 5 6 6
3 6 10 12 14 12 4 1 8 13 10 14 11 8 7 10 8 9 9 9 5 1 8 5 8 12 18 7 5 6 6 6 5 5 6 5 5 7 4 4 5 4 4 5 5 6 9 9 6 7 7 6 6 5 5 5 5 5 6 6 5 5 6 5 6 6 7 7 7 6 6 5 5 5 6 6 6 6 6 5 5 5 6 6 6 5
6 9 8 7 10 8 2 4 10 9 11 11 13 13 12 11 9 10 11 12 7 8 13 13 14 16 21 12 8 8 7 8 9 9 6 6 4 4 5 5 5 5 5 6 8 8 9 10 10 8 6 6 5 6 5 5 5 5 4 4 4 5 6 6 6 6 7 7 7 6 6 5 4 5 6 6 6 6 6 6 6 6 6 6 6 5
2 4 2 6 7 6 4 3 6 8 6 7 11 13 15 13 14 16 16 17 18 14 16 19 15 18 20 9 11 9 7 7 5 3 4 5 5 6 6 5 6 6 7 8 9 10 10 9 6 6 6 6 7 7 7 7 7 6 6 6 5 5 4 6 6 7 7 7 7 7 6 6 5 5 6 6 7 6 6 6 6 7 7 6 5 5
3 2 8 3 4 4 4 4 6 8 7 7 7 10 12 13 14 18 18 18 18 17 17 18 14 17 18 12 8 4 8 6 3 5 7 8 6 7 6 7 7 8 9 8 8 9 9 6 5 5 7 9 10 12 10 8 6 5 5 5 5 5 4 5 6 6 7 7 7 7 7 6 6 6 6 6 6 6 6 7 7 7 7 6 5 5
3 2 1 4 4 3 4 7 5 3 2 3 6 8 12 15 15 16 16 15 12 12 14 11 11 16 22 5 4 7 4 5 7 9 7 5 6 7 7 7 7 7 7 9 9 8 7 7 8 9 11 12 12 10 9 9 8 7 6 6 6 5 4 5 5 6 6 6 7 7 7 7 7 7 6 6 6 6 6 7 8 7 6 6 6 4
6 5 5 5 6 6 6 9 6 4 1 3 7 14 19 18 16 15 15 12 11 13 11 12 19 22 12 2 8 9 5 8 7 7 5 6 8 8 8 7 6 6 8 9 9 9 8 8 10 12 12 9 10 10 8 7 8 8 8 8 6 6 6 5 6 6 6 5 6 7 7 7 8 7 7 6 6 5 6 8 8 7 6 6 5 5
4 8 6 6 7 5 5 7 6 5 10 14 16 16 14 16 17 14 13 15 15 12 13 16 18 15 3 3 7 10 5 8 9 10 11 11 8 5 4 4 5 7 8 8 8 9 10 9 9 11 11 9 6 6 6 7 8 7 7 8 7 7 6 7 6 7 6 5 4 5 6 7 7 7 6 6 5 6 8 8 8 6 5 5 6 6
8 4 4 3 3 2 3 8 6 12 15 18 5 5 13 16 13 16 17 19 19 17 16 16 16 15 8 7 8 10 9 7 9 9 7 5 5 5 5 5 8 8 9 9 8 8 10 12 12 8 6 7 9 8 9 6 8 8 8 8 9 7 8 7 8 7 7 7 5 5 5 6 7 8 6 6 6 7 8 8 7 6 5 6 5 5
8 9 4 2 3 4 3 5 7 11 6 2 3 9 11 9 11 11 15 16 15 13 12 15 19 21 17 14 6 1 3 3 3 4 4 2 5 7 7 7 10 10 9 9 10 11 10 8 7 8 6 5 8 8 8 8 8 9 8 7 8 8 7 8 7 7 7 7 6 6 5 7 7 7 6 7 7 8 8 7 6 6 4 4 5 4
12 7 5 4 4 6 6 8 9 4 5 1 4 9 11 11 9 12 11 15 14 12 13 17 23 23 19 11 2 0 1 1 2 8 2 3 2 4 8 10 11 13 12 6 4 6 6 7 8 9 9 8 9 10 9 9 9 10 10 8 7 8 8 8 8 7 7 7 6 6 6 6 8 7 7 7 8 8 7 7 6 5 3 6 5 4
6 10 6 7 3 6 5 3 1 3 11 14 15 1 5 5 9 7 8 13 9 13 16 17 18 20 15 6 3 2 3 1 8 12 6 5 6 7 10 12 10 3 2 3 4 3 3 3 4 6 10 9 7 8 9 9 11 11 11 10 9 9 8 8 8 7 7 7 6 6 6 6 7 8 8 8 8 8 6 6 5 5 3 6 4 4
1 3 7 11 3 6 5 5 5 9 14 15 2 5 7 8 10 8 6 14 16 16 13 12 17 18 13 5 4 5 4 4 11 16 4 11 11 14 14 10 7 1 2 2 4 5 4 4 6 7 6 8 9 7 8 8 10 10 10 10 10 9 10 9 9 9 9 7 6 6 6 6 6 7 8 8 7 7 7 6 5 4 4 4 3 1
3 3 7 7 6 6 7 8 9 5 9 7 6 5 9 11 12 10 6 10 24 7 8 12 18 17 6 8 9 8 8 10 14 14 5 14 14 9 6 7 1 2 3 4 4 5 6 6 7 5 7 8 7 7 8 8 8 7 8 7 6 8 8 8 8 7 7 7 7 6 6 5 7 7 8 8 7 6 6 5 5 5 5 4 3 3
2 1 3 11 10 9 7 4 4 5 6 3 8 6 9 14 13 10 14 18 1 15 15 15 11 9 8 9 10 9 13 15 12 1 2 4 3 2 4 5 5 4 5 4 5 5 6 4 5 7 6 5 7 7 7 8 9 8 7 8 8 7 6 6 7 8 8 7 7 7 7 5 6 8 7 6 7 6 5 5 5 5 5 4 3 4
4 4 2 3 9 11 10 8 7 5 6 4 4 14 10 9 8 18 8 3 8 5 9 10 10 8 9 12 11 12 12 10 1 4 4 6 6 4 4 4 6 6 4 4 5 6 6 6 6 7 6 4 6 7 7 8 9 7 8 8 7 6 5 7 7 8 8 8 7 7 7 7 6 6 6 5 6 7 6 4 5 5 4 3 3 3
10 7 8 9 4 1 2 4 4 12 9 12 8 1 6 12 6 4 3 1 1 5 5 6 7 6 9 9 10 11 10 4 5 5 6 5 7 5 5 4 5 5 5 4 4 4 7 7 7 6 5 4 4 5 6 9 9 8 8 9 6 5 6 7 7 8 8 8 8 7 7 6 6 6 5 5 5 6 7 5 5 4 3 3 3 3
10 8 5 8 10 12 11 12 10 4 3 14 16 12 6 6 1 5 8 3 1 3 6 4 4 5 9 10 10 10 9 6 2 5 4 3 4 4 4 4 4 4 4 3 4 5 6 8 7 7 5 4 4 4 5 9 10 8 9 8 4 6 6 8 7 8 8 8 7 8 7 6 6 6 5 5 5 6 6 5 4 4 3 3 3 4
12 13 11 10 5 6 7 8 7 6 11 12 12 5 6 11 3 1 2 4 5 4 3 5 6 5 6 9 8 9 6 5 7 8 9 7 6 5 6 5 5 5 5 6 5 5 5 9 9 8 6 5 4 3 4 5 11 10 10 5 5 5 7 8 8 8 8 8 7 7 6 6 6 6 5 5 5 6 6 5 4 5 4 4 4 5
8 9 5 5 7 7 5 5 5 5 4 2 6 3 3 2 4 1 2 1 0 2 6 5 4 5 4 3 6 3 5 4 6 5 4 5 5 4 4 4 4 4 5 5 4 5 6 7 8 8 8 6 5 5 4 4 8 13 7 6 5 6 7 8 9 9 8 7 7 7 7 9 7 6 5 5 5 5 4 5 4 5 4 4 5 4
2 3 7 5 2 9 9 10 8 4 1 2 2 2 1 2 1 1 2 1 2 4 3 0 4 5 6 4 6 6 4 4 5 5 5 5 5 5 5 5 5 5 7 6 5 7 8 8 8 8 7 6 3 6 6 7 7 7 7 6 5 6 7 8 9 9 8 8 7 6 6 7 7 6 5 5 5 5 4 4 4 5 5 4 4 5
5 2 6 6 6 13 8 8 10 6 1 2 3 3 1 1 2 2 2 3 4 3 2 2 3 3 3 3 4 4 2 3 5 5 5 5 6 5 5 5 6 5 3 5 5 5 6 7 8 8 7 7 5 6 6 7 7 5 5 4 4 5 7 8 8 10 9 8 7 6 6 7 7 7 6 5 4 5 5 4 4 5 5 4 4 4
4 8 6 6 7 3 4 2 2 4 2 2 3 4 6 8 6 5 5 3 3 3 1 1 1 1 2 1 2 2 2 4 3 6 5 5 4 5 5 5 5 5 6 6 5 5 7 6 8 7 8 7 6 5 6 6 5 5 5 3 3 4 6 8 7 8 8 6 7 7 5 6 5 5 4 5 5 4 4 4 4 5 5 5 3 2
5 8 2 6 7 8 10 7 4 3 4 5 5 7 5 2 3 3 3 3 2 3 1 1 1 2 2 2 2 1 1 1 1 4 5 5 5 5 5 5 5 6 5 4 5 5 6 6 8 9 8 7 6 6 6 6 5 4 4 3 2 3 6 8 8 8 7 6 6 6 6 5 5 5 4 5 4 5 5 5 5 4 4 4 5 7
7 4 6 7 9 8 2 2 4 4 1 0 2 1 4 3 4 4 4 4 4 4 4 4 4 2 1 2 1 0 0 0 3 4 4 4 4 4 6 7 7 6 6 6 7 6 7 7 8 9 9 7 6 6 6 6 5 4 3 3 2 3 5 6 8 7 6 6 5 5 5 5 5 4 5 4 4 5 6 5 4 7 8 7 6 6
Wind_Direction
156 167 191 203 206 191 204 221 218 239 320 236 187 182 221 172 166 52 103 117 330 139 216 220 225 234 238 232 198 190 188 207 198 202 211 213 207 207 202 195 202 200 207 199 184 184 183 179 178 175 166 171 171 174 176 174 174 179 174 166 179 182 174 174 178 178 172 179 177 178 192 197 183 174 165 179 187 183 193 196 198 191 179 167 170 179
171 194 206 195 211 200 190 207 229 273 313 335 155 178 204 198 119 358 133 184 240 136 234 217 253 251 246 238 231 171 173 203 198 195 198 206 208 208 206 212 206 213 197 170 178 171 171 172 172 169 169 169 173 185 177 181 180 180 179 177 175 177 182 182 183 177 179 179 184 181 192 184 181 170 171 177 189 193 194 193 199 200 192 191 185 187
193 209 198 206 221 307 219 190 219 233 257 303 3 160 132 208 105 119 60 85 172 82 266 213 214 239 243 240 249 181 187 202 198 192 199 195 204 207 204 207 212 206 205 184 184 168 164 167 171 172 178 184 184 183 183 184 178 179 183 183 175 178 183 185 180 174 183 178 179 178 182 173 178 173 163 163 178 186 180 182 185 187 192 195 201 192
191 213 216 194 194 193 330 176 180 186 302 258 240 65 197 176 133 257 298 150 151 203 298 35 330 287 289 272 244 238 226 211 192 196 204 195 202 204 202 197 201 201 196 192 187 183 176 172 175 174 180 185 179 181 186 183 184 183 184 182 179 178 181 184 183 174 172 167 164 158 153 172 158 186 176 173 188 136 159 176 173 185 189 188 197 181
185 179 180 181 176 183 177 217 169 180 227 229 253 276 214 151 197 157 179 117 36 0 103 334 321 283 231 240 244 235 226 224 213 208 208 208 206 201 204 206 196 194 194 193 192 186 182 182 187 185 187 180 186 186 186 184 186 187 187 183 179 176 179 181 177 169 156 146 148 137 76 81 78 73 132 153 166 192 210 154 167 176 178 187 195 197
191 215 354 173 180 183 171 187 197 157 233 257 219 207 344 175 105 96 118 117 96 293 225 138 330 282 213 212 223 217 208 220 211 203 213 213 208 193 205 213 213 208 191 188 192 189 187 189 190 186 181 187 196 197 193 188 187 180 182 178 175 170 171 175 174 168 155 158 158 156 153 163 153 158 162 179 182 190 200 203 166 175 174 175 180 182
175 353 161 178 176 184 180 195 206 163 197 187 245 198 145 67 117 125 156 128 145 195 280 106 175 270 319 240 231 217 199 213 206 202 213 209 206 205 213 213 209 206 211 192 175 175 177 184 176 186 187 190 194 203 188 180 180 176 173 176 175 172 168 166 168 168 153 157 165 173 176 174 171 170 192 170 170 168 195 183 161 149 144 162 171 182
91 97 82 128 140 154 166 198 204 174 169 223 253 3 138 113 127 155 147 166 165 91 29 325 179 230 285 283 307 150 162 203 214 231 237 230 219 215 216 217 216 213 202 193 201 192 182 178 180 186 190 188 194 184 177 174 174 174 172 170 172 165 164 164 163 167 164 163 166 163 167 173 175 175 183 171 157 141 139 159 196 220 244 190 159 166
144 153 165 148 145 149 190 193 166 168 177 206 237 342 146 150 155 151 142 152 51 97 282 207 252 333 255 248 192 125 137 231 225 220 225 226 221 220 215 212 212 208 200 190 194 203 202 187 190 178 181 187 171 169 175 177 174 165 160 158 159 160 159 162 160 164 164 159 162 159 156 169 185 166 178 170 163 163 174 179 184 194 188 142 142 150
311 169 183 157 155 186 162 157 270 165 187 237 193 69 55 66 79 133 142 118 34 113 247 211 197 205 280 246 230 231 194 222 225 221 225 218 208 208 208 191 179 168 166 169 179 191 200 200 187 182 158 162 177 164 161 162 160 160 157 160 161 162 156 159 158 159 160 153 149 154 162 169 179 168 186 168 166 169 168 182 165 149 147 152 143 155
206 271 173 97 184 123 124 47 80 20 110 136 123 83 58 50 75 24 98 115 75 256 239 206 196 179 293 244 192 168 219 205 234 251 237 201 157 152 136 142 145 148 153 156 147 147 132 130 141 124 144 149 131 140 145 158 165 166 166 164 167 164 153 156 159 158 163 153 155 160 167 171 177 177 172 159 158 156 154 169 164 163 169 159 159 168
81 37 45 321 314 166 119 81 6 45 127 129 117 131 92 13 34 50 346 75 157 265 202 318 253 148 191 288 225 211 268 204 196 226 202 164 148 142 136 130 134 139 151 163 162 181 129 116 116 126 136 137 143 146 155 164 163 163 162 161 160 158 155 157 156 154 161 157 159 161 168 172 176 175 169 173 173 169 173 176 175 173 177 189 195 202
65 152 107 30 283 171 150 94 3 21 342 90 127 125 126 172 84 312 119 209 210 214 243 354 6 317 247 239 279 286 236 228 217 190 162 161 158 145 152 151 153 152 139 163 169 173 165 173 174 187 163 148 162 169 165 168 167 163 163 164 159 160 153 155 154 154 160 162 171 167 168 173 169 169 170 173 174 178 178 178 181 183 195 194 198 205
62 112 173 81 24 241 209 144 143 101 264 198 157 146 140 147 154 197 209 190 241 324 288 327 294 263 259 265 235 247 254 220 223 207 152 151 162 175 168 169 162 174 182 204 188 170 178 180 186 194 171 167 168 170 167 166 164 166 166 167 159 158 151 149 152 154 161 175 177 166 166 176 174 171 172 178 178 182 180 175 186 196 193 189 192 187
155 265 221 155 205 156 234 188 172 148 164 197 161 155 170 157 152 188 171 188 204 184 277 275 78 231 128 254 263 243 258 189 121 85 98 82 115 139 140 139 163 182 194 185 184 177 184 186 178 183 171 168 171 169 166 166 167 162 167 165 157 151 151 153 162 161 171 176 179 171 167 175 178 173 170 176 183 189 179 176 178 186 176 161 177 165
195 147 318 329 256 192 175 214 127 116 113 221 169 72 130 221 144 159 179 153 135 118 109 292 205 201 184 255 266 206 192 233 226 217 180 216 198 174 190 197 208 210 198 177 187 192 189 173 171 164 164 167 168 165 162 165 166 166 170 162 160 158 156 160 168 171 173 172 175 173 170 178 170 168 163 164 166 167 151 144 141 148 139 138 122 107
151 220 351 312 56 63 170 314 328 148 167 215 111 197 193 92 94 102 34 83 57 47 257 172 305 293 274 299 267 267 205 223 225 252 243 248 221 193 210 211 209 207 182 172 180 178 163 148 157 163 164 160 158 161 166 168 167 167 162 157 156 158 158 165 172 166 171 170 169 179 172 171 163 160 164 165 157 142 121 119 121 133 151 120 114 107
157 146 315 65 189 298 53 7 40 61 156 94 139 218 127 166 121 130 210 52 185 176 254 147 210 278 199 287 299 244 242 234 209 233 234 237 223 218 226 214 207 197 180 173 175 168 162 163 159 153 149 152 155 157 158 163 166 167 163 159 157 160 163 168 168 169 174 169 167 171 168 164 154 152 152 147 148 135 127 123 125 124 127 142 132 117
107 77 357 1 5 311 280 236 76 25 63 123 175 199 137 226 268 280 193 226 169 220 256 234 215 246 181 232 352 219 212 236 220 214 211 228 220 221 224 223 208 165 150 164 168 157 161 162 156 147 150 149 149 153 154 156 158 157 157 156 160 164 166 164 165 160 157 156 156 159 157 151 143 143 140 135 137 136 142 152 150 153 157 129 118 113
104 129 294 353 4 197 13 181 185 195 335 190 101 71 26 109 206 133 186 201 124 238 238 286 169 245 207 212 217 240 221 233 233 199 213 216 216 221 210 198 181 170 175 182 177 166 160 156 153 151 143 143 148 147 148 145 141 152 154 143 149 150 149 153 154 152 150 149 144 145 137 137 137 142 145 144 137 141 145 154 153 152 131 149 138 144
106 104 147 248 330 114 176 215 203 163 154 245 71 145 179 107 239 114 285 184 162 193 207 254 282 277 251 208 203 218 211 213 191 170 195 206 212 210 203 185 185 182 185 189 176 164 155 145 138 135 135 127 116 120 133 147 149 147 141 142 150 152 153 152 152 145 148 139 143 145 145 146 142 142 138 134 134 134 140 141 142 142 149 124 125 118
91 78 128 141 124 222 233 29 8 188 195 175 166 182 177 151 128 154 257 166 153 151 228 212 246 265 260 208 195 220 224 180 166 150 181 201 232 203 195 186 180 185 192 178 170 156 147 135 129 115 113 119 121 133 139 152 143 148 149 145 142 142 152 150 153 152 148 145 147 143 143 143 138 136 132 135 137 136 138 133 131 125 109 125 131 115
143 91 108 146 197 162 356 316 345 329 48 217 179 205 180 181 157 150 189 223 124 244 87 152 315 265 248 296 86 128 120 119 119 111 205 249 200 149 160 179 186 185 178 176 158 146 140 144 149 149 150 153 153 156 154 155 156 161 159 151 153 149 159 158 157 148 148 148 150 146 141 136 137 136 137 134 137 129 131 128 122 121 128 132 126 107
74 103 84 54 27 309 276 243 254 307 273 271 283 273 163 191 192 190 177 176 162 182 207 218 235 249 277 259 225 304 165 271 315 292 223 254 287 173 162 118 148 159 171 140 129 123 132 139 139 141 153 160 164 167 170 170 160 164 163 159 154 160 161 156 153 146 144 143 139 134 129 133 138 136 140 140 143 137 137 128 127 124 124 123 114 110
142 233 111 124 84 20 344 8 322 287 219 213 201 194 193 181 136 112 97 58 139 210 177 159 239 262 255 337 354 344 306 291 276 254 207 240 270 227 189 185 154 141 118 128 131 135 132 146 166 176 175 178 173 168 169 176 175 167 166 168 170 164 151 142 143 140 143 141 133 131 132 140 145 145 145 143 139 138 131 128 125 120 126 115 109 109
162 168 143 157 164 173 188 193 202 205 199 141 13 128 183 144 159 140 216 183 189 256 168 187 253 256 236 11 282 277 271 282 264 235 208 207 216 212 208 192 182 159 155 145 144 152 180 191 186 181 186 182 181 179 180 178 175 174 173 175 160 146 140 146 139 143 141 139 134 136 141 151 153 155 149 139 135 136 134 131 131 130 120 124 121 106
158 167 189 189 193 201 205 204 52 82 88 177 208 183 184 192 178 180 129 153 203 208 193 222 226 263 256 190 173 236 219 221 242 225 203 222 230 235 197 181 179 178 173 173 180 189 181 186 205 204 191 190 181 181 180 177 176 171 164 162 153 149 147 154 147 146 139 135 132 136 148 156 158 148 139 135 133 129 125 126 134 127 118 105 107 113
116 195 203 204 218 221 221 111 145 145 173 201 188 196 193 187 178 165 176 213 189 168 259 237 242 252 257 238 210 225 236 247 251 229 227 222 208 202 192 132 129 152 177 182 180 190 204 212 210 206 200 179 174 169 171 174 171 170 169 167 157 149 149 155 149 144 138 134 131 137 145 146 144 132 125 124 124 124 126 128 124 120 115 108 109 111
149 201 211 197 233 238 226 132 156 170 182 191 194 188 185 184 179 178 202 211 190 195 228 233 226 240 253 239 227 205 202 214 220 226 212 193 168 151 149 147 161 176 188 192 209 208 211 212 212 203 186 180 161 168 173 171 167 158 152 154 155 149 160 157 145 140 135 131 136 141 137 130 123 119 119 123 124 125 129 130 128 118 109 105 108 110
146 228 186 184 227 239 234 201 181 177 194 191 194 194 193 184 189 197 207 208 201 209 220 234 235 241 252 242 237 217 208 210 220 163 112 129 161 158 157 172 187 196 204 211 213 217 219 221 208 192 181 175 178 182 185 182 180 173 166 165 161 152 162 141 146 142 139 137 138 133 133 132 128 127 126 124 129 133 131 129 120 111 105 106 109 103
125 255 160 141 205 243 218 194 185 192 170 205 206 199 193 194 200 205 210 217 215 220 224 234 240 255 256 234 235 209 208 223 99 155 186 201 160 156 165 186 197 203 214 222 227 226 225 219 204 181 184 194 194 197 191 183 171 159 152 152 151 149 153 134 143 140 140 138 135 135 136 135 135 131 130 134 129 130 128 123 114 106 105 102 100 101
120 254 34 120 183 260 188 176 183 96 90 178 210 198 196 192 204 213 216 215 200 213 228 240 251 249 250 221 251 243 199 165 188 202 207 201 169 166 181 195 206 215 219 223 226 229 226 217 202 198 201 203 202 193 185 177 171 157 157 145 145 148 135 129 134 135 132 133 136 141 143 141 137 132 134 129 127 130 130 114 102 98 99 96 89 88
173 148 156 152 179 227 212 173 146 114 82 282 231 207 203 204 204 211 220 220 209 207 211 214 233 236 250 128 236 254 198 211 202 205 209 213 201 182 184 197 208 217 225 224 222 220 221 216 212 210 212 204 198 194 190 162 150 163 156 146 147 126 125 126 123 121 125 136 142 146 144 142 136 132 127 127 130 132 111 99 92 89 85 85 85 79
160 175 181 160 190 203 202 146 125 121 209 227 220 205 191 202 204 205 214 219 220 200 216 221 236 252 256 219 234 258 194 200 203 215 200 194 193 187 191 192 210 222 228 226 217 211 214 216 217 216 211 198 177 163 153 156 151 146 137 133 129 128 130 127 124 126 130 128 138 144 142 138 131 125 124 126 124 113 97 91 91 93 93 86 75 79
169 172 194 151 187 204 81 109 122 206 222 231 219 153 203 211 195 203 217 217 219 216 228 245 256 264 248 224 215 227 229 214 207 205 224 212 154 156 172 201 222 228 228 225 221 217 212 210 213 203 172 161 155 145 135 136 137 130 128 137 134 136 132 132 132 135 140 139 143 143 139 129 124 122 121 117 111 98 90 92 91 82 80 88 95 96
171 172 169 181 140 51 96 153 193 233 249 351 152 192 208 204 203 202 232 236 226 218 218 240 249 252 248 242 228 253 266 250 272 269 237 214 152 156 178 205 222 224 233 227 215 220 216 215 199 179 169 139 134 143 141 143 138 131 135 134 137 137 137 138 139 141 142 143 146 144 139 131 127 122 119 115 103 97 95 91 94 95 87 83 82 79
168 161 151 203 171 176 181 197 212 350 350 198 190 211 180 190 187 192 227 244 229 220 209 223 237 242 246 250 250 158 37 46 315 283 244 187 213 191 194 219 221 226 228 239 211 220 205 174 170 173 149 153 152 150 153 147 141 136 137 139 144 140 141 141 143 149 146 142 140 136 134 134 130 125 119 115 106 102 103 104 94 82 80 89 81 80
166 169 183 171 223 151 149 169 155 268 251 238 224 87 145 168 179 176 193 262 240 220 218 223 237 246 247 234 158 155 82 325 290 263 206 204 209 229 240 231 236 243 86 109 58 62 80 116 118 136 147 150 152 153 149 152 148 145 147 151 150 147 149 147 149 147 141 139 135 128 126 129 130 126 121 113 112 111 106 101 94 89 84 100 92 83
19 159 169 178 189 154 190 192 197 209 233 246 155 166 182 156 127 121 159 245 247 216 214 212 234 241 239 159 187 137 126 232 252 259 161 180 210 222 228 237 243 255 106 126 144 125 114 121 135 139 129 142 155 164 155 152 149 149 154 156 155 152 150 153 149 148 142 136 126 117 116 121 119 119 116 111 109 112 111 108 109 106 90 85 96 117
152 183 142 182 210 195 188 204 224 211 250 247 169 182 167 139 112 104 194 251 250 166 182 211 222 233 205 160 163 161 163 229 245 261 161 184 206 226 233 250 274 85 71 65 60 117 128 122 108 117 144 161 165 149 147 141 140 139 141 145 142 146 150 148 142 131 121 116 112 108 104 108 110 105 110 113 110 102 106 108 93 91 90 82 93 86
133 341 206 200 199 210 197 241 258 279 268 190 173 164 144 134 128 161 209 233 88 140 194 206 217 214 153 167 165 190 215 217 238 223 151 161 128 54 45 67 93 99 113 103 109 105 102 97 121 142 149 145 139 140 140 137 136 139 140 139 136 138 133 126 120 117 114 110 107 104 100 93 99 106 98 104 115 112 99 91 100 93 90 90 82 94
188 177 215 183 209 204 205 213 235 275 239 175 228 145 144 112 185 206 231 95 131 167 186 191 201 194 164 177 194 212 225 229 97 118 100 127 143 134 94 104 89 72 65 92 109 109 105 96 98 95 87 105 126 130 134 132 130 131 134 129 125 125 122 113 112 111 111 110 105 102 98 98 93 89 102 102 108 108 98 93 92 95 97 89 89 94
179 157 192 199 199 267 158 203 201 241 244 126 105 52 188 180 224 168 150 41 71 167 166 202 191 200 162 201 211 218 235 235 158 171 154 153 148 152 148 128 132 134 132 113 90 102 119 111 103 97 102 94 109 125 136 132 132 135 129 124 128 120 111 108 109 109 109 108 104 101 100 95 97 97 95 99 101 106 103 99 97 96 104 101 98 105
156 182 186 213 188 198 197 200 214 213 87 141 148 188 217 218 193 158 129 177 296 149 171 185 224 189 181 191 209 229 231 218 140 157 140 144 131 131 126 120 115 116 104 108 130 135 116 112 111 105 87 77 82 112 137 141 138 137 128 127 119 108 104 105 109 112 110 108 106 105 100 98 92 89 85 91 94 92 97 92 98 105 102 85 92 99
173 204 175 201 161 200 196 222 241 205 171 187 184 206 178 205 138 200 121 158 169 246 193 161 216 224 193 194 206 209 233 219 191 181 167 193 176 167 161 165 160 156 148 134 135 124 123 130 129 116 91 67 65 60 97 133 135 129 126 127 117 117 118 118 117 115 112 111 110 106 104 94 89 88 83 77 84 96 96 93 96 100 86 82 84 85
181 183 132 169 214 202 237 213 220 215 208 211 28 80 48 206 186 104 127 114 322 194 174 176 203 178 175 161 174 209 203 187 151 174 154 158 163 158 132 126 115 115 117 115 112 117 118 115 114 117 108 73 48 58 53 81 129 134 132 120 117 121 124 126 122 116 115 113 110 110 112 104 93 85 79 81 78 82 89 102 100 103 97 91 91 94
258 162 166 186 162 162 234 230 230 234 171 179 121 38 93 90 76 87 91 117 181 162 150 123 165 171 176 165 173 192 211 161 149 161 151 154 164 168 162 158 159 151 151 149 150 131 129 131 127 126 121 101 54 61 63 72 67 94 117 120 125 126 128 124 122 119 118 116 114 110 111 109 112 106 89 81 82 81 79 76 85 93 93 93 96 97
239 172 182 179 166 191 226 206 225 218 153 129 132 134 150 176 186 186 165 172 165 169 144 168 108 110 116 159 197 159 185 166 146 170 167 177 175 172 173 164 154 141 136 135 140 136 128 133 135 131 122 109 88 77 80 80 83 84 97 106 115 129 126 127 131 129 128 124 120 112 109 105 106 107 104 91 87 94 89 81 80 91 94 90 104 125
167 130 217 172 196 250 310 329 63 74 111 203 198 204 189 186 186 199 190 134 104 118 70 60 77 136 133 146 151 147 160 216 177 173 167 169 165 172 177 163 151 144 136 136 144 141 144 138 130 128 116 107 98 93 85 84 82 69 73 77 88 120 124 122 115 111 111 111 109 105 101 100 97 100 96 98 87 72 69 82 84 102 102 93 65 87
100 196 177 146 210 214 214 218 122 203 250 267 240 223 225 232 147 134 109 134 159 184 192 202 306 11 61 54 63 94 195 247 168 145 166 170 173 162 147 138 130 126 125 125 118 117 112 119 127 124 117 112 108 102 99 88 81 72 57 54 36 89 123 122 115 108 103 102 102 105 104 103 97 95 93 100 101 107 100 100 86 78 101 96 106 107
167 181 143 180 197 221 247 230 194 210 249 148 44 284 201 176 120 137 162 171 199 196 180 180 220 256 298 314 38 76 88 152 173 132 130 139 146 147 144 142 138 137 137 139 128 126 127 126 123 118 117 120 116 106 104 98 81 79 74 57 43 90 121 125 118 111 108 107 104 107 111 109 107 102 99 101 103 117 121 128 116 108 99 100 104 107